Regional Weather Roundup
Issued by NWS

Home | Current Version | Previous Version | Text Only | Print | Product List | Glossary On
Versions: 1 2 3 4 5 6 7 8 9 10 11 12 13 14 15 16 17 18 19 20 21 22 23 24 25 26 27 28 29 30 31 32 33 34 35 36 37 38 39 40 41 42 43 44 45 46 47 48 49 50
000
ASHW40 PHFO 301113
RWRHI

WEATHER ROUNDUP FOR HAWAII
NATIONAL WEATHER SERVICE HONOLULU HI
100 AM HST SAT APR 30 2016

THIS IS AN AUTOMATED REPORT THAT HAS NOT BEEN QUALITY CONTROLLED.

NOTE..."FAIR" INDICATES FEW OR NO CLOUDS BELOW 12,000 FEET WITH NO
SIGNIFICANT WEATHER AND/OR OBSTRUCTIONS TO VISIBILITY.

* - THESE SITES REPORT LIMITED FIELDS

HIZ001>004-301200-
KAUAI-NIIHAU-

CITY           SKY/WX    TMP DP  RH WIND       PRES   REMARKS
LIHUE APT      MOCLDY    77  67  71 E13       30.10F
PORT ALLEN*      N/A     75 N/A N/A NE12G17     N/A
POIPU*           N/A     75 N/A N/A NE7G14      N/A
PRINCEVILLE*     N/A     72 N/A N/A SE5         N/A
KOKOLE POINT*  NOT AVBL
MOLOAA DAIRY*    N/A     73  68  83 E8G14       N/A
WAIMEA HTS*    NOT AVBL
PUU OPAE*      NOT AVBL
PUU LUA*       NOT AVBL
MAKAHA RIDGE*  NOT AVBL
$$

HIZ005>011-301200-
OAHU-

CITY           SKY/WX    TMP DP  RH WIND       PRES   REMARKS
HONOLULU       PTCLDY    76  66  71 E8        30.07F
KALAELOA       PTCLDY    72  64  76 NE5       30.09F
KANEOHE MCB    PTCLDY    75  67  76 VRB5      30.06F
WHEELER FIELD  FAIR      69  65  87 E3        30.08F
BELLOWS*       NOT AVBL
KAHUKU*        NOT AVBL
WHEELER*       NOT AVBL
WAIANAE HARBOR NOT AVBL
DILLINGHAM*      N/A     64  61  88 MISG        N/A
KAHUKU TRN*      N/A     86  79  79 CALM        N/A  HX  99
KAWAILOA*        N/A     70  63  78 E9G16       N/A
KII*             N/A     75  68  78 E17G23      N/A
MAKUA RANGE*     N/A     70  63  78 SE2         N/A
OAHU FOREST NW NOT AVBL
SCHOFIELD BRK*   N/A     79  75  89 SW1         N/A
SCHOFIELD S*   NOT AVBL
WAIANAE VLY*   NOT AVBL
KUAOKALA*      NOT AVBL
HONOULIUULI*   NOT AVBL
MOKUOLOE IS*   NOT AVBL
PALEHUA*       NOT AVBL
WAIAWA PHB*    NOT AVBL
$$

HIZ012>013-301200-
MOLOKAI-

CITY           SKY/WX    TMP DP  RH WIND       PRES   REMARKS
MOLOKAI AIRPT  CLEAR     71  63  75 NE6       30.07F
KALAUPAPA      NOT AVBL
MAKAPULAPAI*   NOT AVBL
MOLOKAI 1*     NOT AVBL
PUU ALII*      NOT AVBL
$$

HIZ016-301200-
KAHOOLAWE-

CITY           SKY/WX    TMP DP  RH WIND       PRES   REMARKS
KAHOOLAWE*     NOT AVBL
HAKIOAWA*      NOT AVBL
HONOKANAIA*      N/A     74  65  74 NE12G28   30.01F
KANELOA*         N/A     72  66  83 E17G29    30.14F
KEALIALALO*    NOT AVBL
LUA MAKIKA*    NOT AVBL
$$

HIZ014>015-301200-
LANAI-

CITY           SKY/WX    TMP DP  RH WIND       PRES   REMARKS
LANAI CITY     FAIR      67  64  90 NE9       30.12F
LANAI 1*       NOT AVBL
$$

HIZ017>028-301200-
MAUI-

CITY           SKY/WX    TMP DP  RH WIND       PRES   REMARKS
KAHULUI        CLEAR     73  66  78 NE12      30.06F
KAPALUA-W MAUI NOT AVBL
HANA AIRPORT   NOT AVBL
HANA*            N/A     73 N/A N/A SE3         N/A
HALEAKALA SUMM   N/A     45  16  31 E20G35      N/A
MAALAEA BAY*   NOT AVBL
HALEAKALA*     NOT AVBL
KAUPO GAP*     NOT AVBL
KULA 1*          N/A     46  43  87 E3          N/A
$$

HIZ023>026-301200-
BIG ISLAND OF HAWAII COAST AND LOWER SLOPES-

CITY           SKY/WX    TMP DP  RH WIND       PRES   REMARKS
KAILUA KONA    CLOUDY    76  67  73 SE5       30.03F
HILO           MOCLDY    71  68  90 CALM      30.10F
HONOKAA*         N/A     66 N/A N/A VRB1        N/A
KAWAIHAE MWT*    N/A     79 N/A N/A SE7G16      N/A
KAWAIHAE*      NOT AVBL
SOUTH POINT*     N/A     72 N/A N/A N18G26      N/A
UPOLU AIRPORT*   N/A    N/A N/A N/A NE17G25     N/A
KAMUELA*       MOSUNNY   61  59  94 NE9       30.15R
HAKALAU*         N/A     48  48 100 S5          N/A
KALOKO-HONOKO* NOT AVBL
PALI 2*          N/A     63  59  88 S14G21      N/A
KEALAKOMO*       N/A     73  66  78 NE12G18     N/A
KAUPULEHU*     NOT AVBL
KAPAPALA*        N/A     63  60  89 N3          N/A
LOWER KAHUKU*  NOT AVBL
PUHE CS*       NOT AVBL
PUHO CS*       NOT AVBL
PTA KEAMUKU*     N/A     61  57  88 CALM        N/A
WAIKOLOA*      NOT AVBL
$$

HIZ027>028-301200-
BIG ISLAND OF HAWAII INTERIOR AND SUMMMITS-

CITY           SKY/WX    TMP DP  RH WIND       PRES   REMARKS
BRADSHAW FIELD CLOUDY    47  43  87 NW2       30.34F
MK VISITOR CEN   N/A     52   5  15 NE9         N/A
MAUNA KEA*       N/A     34  -2  21 CALM        N/A
MAUNA LOA*       N/A     43  -6  13 MISG        N/A
MAUNA LOA 1*   NOT AVBL
PTA KIPUKA*      N/A     48  46  93 E3G9        N/A
PTA RANGE 17*    N/A     55  48  76 E3G15       N/A
PTA WEST*        N/A     54  50  87 NE3G12      N/A
NENE CABIN*    NOT AVBL
AHUMOA*        NOT AVBL
PTA PORTABLE*  NOT AVBL
PUU MALI*        N/A     52  45  76 SW5G10      N/A
$$

HIC003-301200-
NORTHWEST ISLANDS-

CITY           SKY/WX    TMP DP  RH WIND       PRES   REMARKS
MIDWAY ISLAND  CLOUDY    66  63  88 E20       30.22S
MIDWAY NOS*    NOT AVBL
FRENCH FRIGATE NOT AVBL
$$

PHZ110>124-180-301200-
BUOY REPORTS

STATION/POSITION TIME  TEMP    WIND        PRES    WAVE   SWELL
                       AIR SEA DIR/SP/G            HT/PER HT/DIR
                 (UTC) (F)     (DEG/KT/KT) (MB)    (FT/S) (FT/D)
BUOY 51001       1000   77 79   60/ 14/ 16 1019.3F
BUOY 51101       1050   75 76   90/ 10/ 12 1019.8F   6/12   7/300
BUOY 51100       NOT AVBL
BUOY 51002       0950   77 78   80/ 17/ 21 1016.7    8/ 9   5/ 90
BUOY 51003       1050   77 78   70/ 10/ 12 1017.6F   6/13   7/300
BUOY 51004       1050   80 79   70/ 19/ 23 1016.7F  10/ 9   7/ 90
BARBERS PT BUOY  NOT AVBL
WAIMEA BAY BUOY  1004      78                N/A     5/13   3/320
KAILUA BAY BUOY  1011      78                N/A     7/ 7   2/ 80
LANAI BUOY       1015      79                N/A     2/13   2/200
BARBERS PT 2     1103      79                N/A     5/13   3/210
PAUWELA MAUI     1009      76                N/A     7/10   3/330
HILO             1012      77                N/A     8/ 9   2/110
KANEOHE BAY BUOY 1006      77                N/A     6/ 9   2/350
HANALEI KAUAI    NOT AVBL
KAHULUI HARBOR   1000   74 77   50/ 14/ 20 1018.3F
HONOLULU HARBOR  1000   77 78   80/  2/  7 1019.2F
KILO NALU        NOT AVBL
HILO HARBOR      1000   71 76  250/  8/  9 1019.1F
MOKUOLOE         1000   76 79   90/ 10/ 13 1019.2F
NAWILIWILI       1000   76 80   70/ 14/ 16 1019.1F
WHOTS BUOY       NOT AVBL
BUOY 51028       NOT AVBL
$$

......................KEY........................................
  SKY/WX - SKY CONDITIONS/PRESENT WEATHER
  TMP    - TEMPERATURE IN FAHRENHEIT
  DWPT   - DEWPOINT IN FAHRENHEIT
  RH     - RELATIVE HUMIDITY IN PERCENT
  WIND   - DIRECTION AND SPEED /MPH FOR ISLANDS...KTS FOR BUOYS/
  PRES   - MEAN SEA LEVEL PRESSURE IN INCHES OF HG
  VSB    - VISIBILITY IN MILES
  HX     - HEAT INDEX
  WCI    - WIND CHILL INDEX
  VRB    - VARIABLE WIND DIRECTION
  N/A    - NOT AVAILABLE




USA.gov is the U.S. government's official web portal to all federal, state and local government web resources and services.